Вернуться в каталог

STARLINK-4378

АктивенСвязьSSO
NORAD 53476·PAYLOAD·🇺🇸 United States

Запущен Aug 12, 2022 с Vandenberg Space Force Base

Loading…

Ближайшие Пролёты (ближайшие 24 часа)

TLE

СвежийSource: CelesTrak SupGP

Эпоха: Sep 14, 2026, 22:11 UTC

1 53476C 22099M   26257.92479167 -.00054960  00000+0 -33416-2 0  2575
2 53476  97.2852  12.1742 0001467  85.9343  18.8586 15.10574013    11

Отслеживайте STARLINK-4378 в реальном времени с AllMySat

Download on the App Store